Flag for Croatia Weather past 2 weeks in Zagreb, Croatia

Now
86 °F

Sunny.


Feels Like: 88 °F
Forecast: 59 / 89 °F
Wind: 3 mph from Southwest

Location: Zagreb / Pleso

Current Time: Aug 28, 2015 at 7:25:00 PM

Latest Report: Aug 28, 2015 at 7:00 PM


Visibility: 10 mi

Pressure: 30.07 "Hg

Humidity: 52%

Dew point: 66 °F

Location of ZagrebLocation

Historic Weather in Zagreb — Graph

°F

Zagreb temperature yesterday

Maximum temperature yesterday: 81 °F (at 4:00 PM)
Minimum temperature yesterday: 59 °F (at 3:00 AM)
Average temperature yesterday: 69 °F

Past Weeks' High & Low Weather Summary

 TemperatureHumidityPressure
High97 °F (Aug 14, 3:00 PM)94% (Aug 16, 8:30 PM)30.21 "Hg (Aug 16, 8:30 PM)
Low55 °F (Aug 22, 4:00 AM)25% (Aug 14, 4:30 PM)29.68 "Hg (Aug 16, 7:00 PM)
Average70 °F72%29.97 "Hg
* Reported Aug 13 6:00 PM — Aug 28 6:00 PM, Zagreb, Weather by CustomWeather, © 2015

Note: Actual official high and low records may vary slightly from our data, if they occured in-between our weather recording intervals... More about our weather records

Advertising

Zagreb weather history for previous 24 hours

 ConditionsComfort  
Time TempWeatherWind HumidityBarometerVisibility
6:00 PM
Fri, Aug 28
88 °FPassing clouds.5 mph43%30.07 "HgN/A
5:30 PM88 °FPassing clouds.6 mph43%30.07 "HgN/A
5:00 PM90 °FPassing clouds.5 mph41%30.07 "HgN/A
4:30 PM88 °FPassing clouds.6 mph43%30.07 "HgN/A
4:00 PM88 °FSunny.5 mph43%30.07 "Hg10 mi
3:30 PM88 °FPassing clouds.6 mph40%30.07 "HgN/A
3:00 PM86 °FPassing clouds.7 mph43%30.07 "HgN/A
2:30 PM86 °FPassing clouds.8 mph43%30.07 "HgN/A
2:00 PM86 °FPassing clouds.9 mph40%30.07 "HgN/A
1:30 PM86 °FPassing clouds.8 mph38%30.07 "HgN/A
1:00 PM86 °FPassing clouds.10 mph40%30.07 "HgN/A
12:30 PM84 °FPassing clouds.10 mph43%30.07 "HgN/A
12:00 PM82 °FPassing clouds.8 mph45%30.07 "HgN/A
11:30 AM81 °FPassing clouds.9 mph45%30.07 "HgN/A
11:00 AM79 °FPassing clouds.6 mph54%30.07 "HgN/A
10:30 AM77 °FPassing clouds.5 mph61%30.07 "HgN/A
10:00 AM73 °FPassing clouds.5 mph69%30.07 "HgN/A
9:30 AM70 °FPassing clouds.3 mph78%30.07 "HgN/A
9:00 AM68 °FSunny.2 mph83%30.07 "Hg10 mi
8:30 AM64 °FPassing clouds.1 mph94%30.07 "HgN/A
8:00 AM63 °FScattered clouds.1 mph94%30.07 "Hg1 mi
7:30 AM61 °FFog.1 mph94%30.07 "Hg0 mi
7:00 AM59 °FFog.No wind94%30.04 "Hg0 mi
6:00 AM57 °FFog.2 mph94%30.04 "Hg0 mi
5:00 AM61 °FFog.1 mph88%30.04 "Hg5 mi
4:30 AM61 °FFog.1 mph94%30.04 "Hg5 mi
4:00 AM61 °FFog.No wind94%30.04 "Hg5 mi
3:30 AM61 °FFog.No wind88%30.04 "Hg1 mi
3:00 AM61 °FFog.1 mph88%30.04 "Hg2 mi
2:30 AM63 °FClear.1 mph94%30.04 "Hg10 mi
2:00 AM63 °FClear.3 mph88%30.04 "Hg10 mi
1:30 AM63 °FClear.3 mph94%30.04 "Hg10 mi
1:00 AM63 °FClear.2 mph94%30.04 "Hg10 mi
12:00 AM64 °FClear.3 mph88%30.04 "Hg10 mi
11:30 PM
Thu, Aug 27
66 °FClear.1 mph88%30.04 "Hg10 mi
11:00 PM68 °FClear.2 mph83%30.04 "Hg10 mi
10:30 PM68 °FClear.2 mph88%30.04 "Hg10 mi
10:00 PM68 °FClear.1 mph83%30.04 "Hg10 mi
9:30 PM70 °FClear.1 mph83%30.04 "Hg10 mi
9:00 PM72 °FClear.2 mph78%30.04 "Hg10 mi
8:30 PM73 °FSunny.2 mph74%30.04 "Hg10 mi
8:00 PM75 °FSunny.3 mph69%30.04 "Hg10 mi
7:30 PM77 °FPassing clouds.3 mph65%30.04 "HgN/A
7:00 PM79 °FPassing clouds.3 mph61%30.04 "HgN/A
Weather by CustomWeather, © 2015

See weather overviewHow to use our weather pages